Regional Weather Roundup
Issued by NWS

Home | Current Version | Previous Version | Text Only | Print | Product List | Glossary On
Versions: 1 2 3 4 5 6 7 8 9 10 11 12 13 14 15 16 17 18 19 20 21 22 23 24 25 26 27 28 29 30 31 32 33 34 35 36 37 38 39 40 41 42 43 44 45 46 47 48 49 50
667
ASUS45 KBOU 291007
RWRCO

WEATHER ROUNDUP FOR COLORADO
NATIONAL WEATHER SERVICE DENVER/BOULDER CO
400 AM MDT WED MAR 29 2017

NOTE: "FAIR" INDICATES FEW OR NO CLOUDS BELOW 12000 FEET WITH NO
SIGNIFICANT WEATHER AND/OR OBSTRUCTIONS TO VISIBILITY.

COZ001>005-013-030-031-291100-
...NORTHWEST COLORADO...

CITY           SKY/WX    TMP DP  RH WIND       PRES   REMARKS
CRAIG          FAIR      30  25  81 S5        30.13R WCI  25
HAYDEN         FAIR      28  21  74 SW6       30.12R WCI  22
MEEKER         FAIR      33  28  81 E8        30.12R WCI  26
MOUNT WERNER   NOT AVBL
STEAMBOAT SPGS CLOUDY    31  28  90 CALM      30.10R
WALDEN         NOT AVBL
$$

COZ006>008-011-291100-
...WEST CENTRAL VALLEYS...

CITY           SKY/WX    TMP DP  RH WIND       PRES   REMARKS
GRAND JUNCTION FAIR      37  31  78 CALM      30.07R
MONTROSE       FAIR      38  30  73 N5        30.05R
EAGLE          CLOUDY    38  30  73 SE3       30.09R
RIFLE          CLOUDY    35  32  88 VRB3      30.08R
DELTA          FAIR      40  34  78 E7        30.02S
NUCLA          FAIR      41  28  60 W3        30.04F
$$

COZ017>023-064>068-291100-
...SOUTHWEST COLORADO...

CITY           SKY/WX    TMP DP  RH WIND       PRES   REMARKS
DURANGO        FAIR      35  32  88 N5        29.91R WCI  31
CORTEZ         FAIR      40  30  67 S5        29.96R
PAGOSA SPRINGS MOCLDY    39  29  67 NE3       29.91S
TELLURIDE      NOT AVBL
WOLF CREEK PAS CLOUDY    21  21 100 MISG      30.02S
$$

COZ009-010-012-014-032>034-037-058>063-291100-
...CENTRAL COLORADO...

CITY           SKY/WX    TMP DP  RH WIND       PRES   REMARKS
ASPEN          CLOUDY    33  29  85 N5        30.05R WCI  29
BUENA VISTA    CLOUDY    36  26  66 N9        30.02S
COPPER MTN     CLOUDY    25  19  80 MISG      30.08S
BERTHOUD PASS  HAZE      16   5  62 E7G17     30.10R VSB 1/2 WCI   6
COTTONWOOD PAS CLOUDY    32  25  74 CALM      30.04S
GUNNISON       FAIR      33  31  92 CALM      30.01R
KREMMLING      CLOUDY    37  30  75 N3        30.09S
LEADVILLE      CLOUDY    25  21  85 N10       30.04R WCI  15
MONARCH PASS   CLOUDY    21  19  93 NE31G40   30.09R WCI   3
SALIDA         CLOUDY    37  34  88 E5        30.08S
SUNLIGHT       CLOUDY   N/A N/A N/A NE7       30.13S
WILKERSON PASS LGT SNOW N/A N/A N/A NE16G30   30.06S
$$

COZ069>075-291100-
...SAN LUIS VALLEY/SANGRE DE CRISTO MOUNTAINS...

CITY           SKY/WX    TMP DP  RH WIND       PRES   REMARKS
ALAMOSA        CLOUDY    37  31  78 N8        29.92R
LA VETA PASS   NOT AVBL
SAGUACHE       CLOUDY    37  27  65 N8        29.98R
$$

COZ035-036-038>040-291100-
...NORTHERN COLORADO FRONT RANGE...

CITY           SKY/WX    TMP DP  RH WIND       PRES   REMARKS
DENVER INTL AP LGT SNOW  35  34  96 NE12      30.07F FOG     WCI  27
DMNS CITY PARK   N/A     36  35  98 N6        30.08F
AURORA         NOT AVBL
FRONT RANGE AP FOG       36  36 100 N13       30.07F VSB 3/4
ERIE MUNI ARPT LGT RAIN  38  37  95 N5        30.10F
BOULDER MUN AP RAIN      36  36 100 N6        30.10F
CENTENNIAL     LGT SNOW  34  32  92 N10       30.07F VSB 1   WCI  26
BROOMFIELD     LGT RAIN  36  36 100 N7        30.10S
FORT COLLINS   LGT RAIN  38  36  92 NE3       30.11S
LONGMONT       MIX PCPN  40  37  87 CALM      30.12F
$$

COZ041-046-047-076>085-087-088-291100-
...PIKES PEAK/PALMER DIVIDE AND SOUTHERN FOOTHILLS...

CITY           SKY/WX    TMP DP  RH WIND       PRES   REMARKS
COLO. SPRINGS  CLOUDY    35  29  78 N16       30.02F WCI  25
A. F. ACADEMY  FLURRIES  32  32  99 N17G23    30.02F WCI  21
SCHRIEVER AFB  MOCLDY    33  30  87 N16G24    30.01F WCI  23
ELLICOTT       CLOUDY   N/A N/A N/A N16G28    29.99F
FALCON         CLOUDY    31  30  94 N15G21    30.02F WCI  20
FORT CARSON    CLOUDY    37  31  78 N18       29.99F
LIMON          LGT SNOW  32  32 100 N15       30.01F FOG     WCI  22
MONUMENT HILL  LGT SNOW  30  28  93 N12       30.04F WCI  21
TRINIDAD       FLURRIES  34  33  96 N10       29.96R WCI  26
$$

COZ042>045-048>051-090-091-291100-
...NORTHEAST COLORADO...

CITY           SKY/WX    TMP DP  RH WIND       PRES   REMARKS
GREELEY ARPT   CLOUDY    38  36  92 NE7       30.11F
AKRON          LGT RAIN  35  34  96 N12       30.06F FOG     WCI  27
BURLINGTON     CLOUDY    38  36  92 N16G25    29.97F
WRAY           NOT AVBL
STERLING       NOT AVBL
HOLYOKE        LGT RAIN  41  37  87 N12       30.06F
FORT MORGAN    DRIZZLE   37  36  96 NE7       30.09S
$$

COZ086-089-092>099-291100-
...SOUTHEAST COLORADO...

CITY           SKY/WX    TMP DP  RH WIND       PRES   REMARKS
PUEBLO         LGT RAIN  38  35  89 NW6       30.01F
LA JUNTA       CLOUDY    40  37  89 N14       29.97R
LAMAR          CLOUDY    40  37  89 NE15      29.92F
SPRINGFIELD      N/A     37  37 100 N21G30    29.87S
$$




USA.gov is the U.S. government's official web portal to all federal, state and local government web resources and services.